Flag for U.S.A. Weather past 2 weeks in Garland, Texas, U.S.A.

Now
53 °F

Clear.


Feels Like: 52 °F
Forecast: 51 / 77 °F
Wind: 3 mph from Southwest

Location: Mesquite Metro Airport

Current Time: Jan 28, 2015 at 12:38:01 AM

Latest Report: Jan 28, 2015 at 12:15 AM


Visibility: 10 mi

Pressure: 30.12 "Hg

Humidity: 61%

Dew point: 40 °F

Location of GarlandLocation

Historic Weather in Garland — Graph

°F

Garland temperature yesterday

Maximum temperature yesterday: 77 °F (at 2:50 PM)
Minimum temperature yesterday: 41 °F (at 3:55 AM)
Average temperature yesterday: 54 °F

Past Weeks' High & Low Weather Summary

 TemperatureHumidityPressure
High77 °F (Jan 27, 2:50 PM)100% (Jan 16, 6:50 AM)30.51 "Hg (Jan 16, 6:50 AM)
Low28 °F (Jan 16, 7:50 AM)20% (Jan 18, 2:48 PM)29.93 "Hg (Jan 20, 3:35 AM)
Average45 °F67%30.18 "Hg
* Reported Jan 12 11:15 PM — Jan 27 11:15 PM, Garland, Weather by CustomWeather, © 2014

Note: Actual official high and low records may vary slightly from our data, if they occured in-between our weather recording intervals... More about our weather records

Advertising

Garland weather history for previous 24 hours

 ConditionsComfort  
Time TempWeatherWind HumidityBarometerVisibility
11:15 PM
Jan 27
55 °FClear.5 mph56%30.12 "Hg10 mi
10:55 PM54 °FClear.No wind59%30.12 "Hg10 mi
10:35 PM55 °FClear.3 mph56%30.12 "Hg10 mi
10:15 PM56 °FClear.3 mph53%30.12 "Hg10 mi
9:55 PM57 °FClear.5 mph52%30.12 "Hg10 mi
9:15 PM58 °FClear.3 mph50%30.12 "Hg10 mi
8:55 PM59 °FClear.3 mph48%30.12 "Hg10 mi
7:50 PM59 °FClear.3 mph48%30.12 "Hg10 mi
6:50 PM63 °FClear.3 mph42%30.11 "Hg10 mi
5:50 PM70 °FSunny.5 mph31%30.10 "Hg10 mi
4:50 PM75 °FSunny.3 mph24%30.10 "Hg10 mi
2:50 PM77 °FSunny.3 mph24%30.11 "Hg10 mi
1:50 PM73 °FSunny.No wind27%30.13 "Hg10 mi
12:50 PM72 °FSunny.No wind29%30.16 "Hg10 mi
11:50 AM66 °FSunny.3 mph37%30.19 "Hg10 mi
10:50 AM64 °FSunny.6 mph40%30.20 "Hg10 mi
9:50 AM59 °FSunny.5 mph48%30.19 "Hg10 mi
8:50 AM52 °FSunny.5 mph67%30.17 "Hg10 mi
7:50 AM45 °FSunny.5 mph76%30.15 "Hg10 mi
6:50 AM41 °FClear.3 mph81%30.12 "Hg10 mi
4:35 AM45 °FClear.3 mph77%30.07 "Hg10 mi
4:15 AM42 °FClear.5 mph88%30.07 "Hg10 mi
3:55 AM41 °FClear.3 mph87%30.07 "Hg10 mi
3:35 AM42 °FClear.3 mph82%30.08 "Hg10 mi
3:15 AM43 °FClear.5 mph83%30.08 "Hg10 mi
2:55 AM43 °FClear.No wind80%30.08 "Hg10 mi
2:35 AM45 °FClear.No wind73%30.08 "Hg10 mi
2:15 AM47 °FClear.No wind70%30.08 "Hg10 mi
1:55 AM46 °FClear.No wind74%30.08 "Hg10 mi
1:35 AM45 °FClear.No wind77%30.07 "Hg10 mi
1:15 AM45 °FClear.No wind73%30.08 "Hg10 mi
12:55 AM47 °FClear.No wind69%30.08 "Hg10 mi
12:35 AM47 °FClear.No wind71%30.08 "Hg10 mi
12:15 AM48 °FClear.3 mph68%30.08 "Hg10 mi
Weather by CustomWeather, © 2014

See weather overviewHow to use our weather pages